Flag for Germany Weather past 2 weeks in Heide, Schleswig-Holstein, Germany

Now
41 °F

Fog.


Feels Like: 39 °F
Forecast: 45 / 54 °F
Wind: 3 mph from Southeast

Location: Hohn

Current Time: Apr 25, 2015 at 3:02:47 AM

Latest Report: Apr 25, 2015 at 2:20 AM


Visibility: 2 mi

Pressure: 29.71 "Hg

Humidity: 100%

Dew point: 41 °F

Location of HeideLocation

Historic Weather in Heide — Graph

°F

Heide temperature yesterday

Maximum temperature yesterday: 61 °F (at 4:20 PM)
Minimum temperature yesterday: 43 °F (at 1:20 AM)
Average temperature yesterday: 50 °F

Past Weeks' High & Low Weather Summary

 TemperatureHumidityPressure
High64 °F (Apr 11, 2:20 PM)100% (Apr 10, 7:20 AM)30.36 "Hg (Apr 10, 7:20 AM)
Low30 °F (Apr 18, 6:20 AM)27% (Apr 20, 7:20 PM)29.74 "Hg (Apr 25, 1:20 AM)
Average48 °F74%30.13 "Hg
* Reported Apr 10 1:20 AM — Apr 25 1:20 AM, Heide, Weather by CustomWeather, © 2015

Note: Actual official high and low records may vary slightly from our data, if they occured in-between our weather recording intervals... More about our weather records

Advertising

Heide weather history for previous 24 hours

 ConditionsComfort  
Time TempWeatherWind HumidityBarometerVisibility
1:20 AM
Sat, Apr 25
41 °FFog.2 mph93%29.74 "Hg2 mi
12:20 AM43 °FFog.2 mph93%29.77 "Hg2 mi
11:20 PM
Fri, Apr 24
45 °FFog.2 mph93%29.77 "Hg2 mi
10:20 PM46 °FFog.2 mph87%29.77 "Hg2 mi
9:20 PM50 °FHaze.3 mph82%29.80 "Hg3 mi
8:20 PM57 °FPassing clouds.3 mph63%29.77 "Hg4 mi
7:20 PM61 °FPartly sunny.6 mph52%29.77 "Hg5 mi
6:20 PM61 °FScattered clouds.7 mph52%29.80 "Hg6 mi
5:20 PM59 °FScattered clouds.12 mph51%29.83 "HgN/A
4:20 PM61 °FPartly sunny.15 mph42%29.83 "HgN/A
3:20 PM59 °FPartly sunny.13 mph55%29.83 "HgN/A
2:20 PM59 °FPartly sunny.9 mph55%29.86 "HgN/A
1:20 PM57 °FPartly sunny.9 mph63%29.86 "HgN/A
12:20 PM55 °FPartly sunny.10 mph63%29.89 "HgN/A
11:20 AM52 °FScattered clouds.6 mph72%29.89 "HgN/A
10:52 AM50 °FPartly sunny.5 mph76%29.89 "HgN/A
10:20 AM48 °FPartly sunny.7 mph82%29.92 "HgN/A
9:20 AM46 °FPartly sunny.6 mph87%29.92 "HgN/A
8:46 AM45 °FPartly sunny.5 mph93%29.92 "Hg6 mi
8:20 AM45 °FFog.5 mph100%29.92 "Hg2 mi
7:20 AM43 °FFog.5 mph100%29.92 "Hg1 mi
7:02 AM43 °FFog.5 mph100%29.92 "Hg1 mi
6:52 AM43 °FFog.3 mph100%29.92 "Hg1 mi
6:20 AM43 °FFog.6 mph100%29.92 "Hg1 mi
5:45 AM43 °FFog.5 mph100%29.92 "Hg1 mi
4:20 AM43 °FFog.8 mph100%29.95 "Hg1 mi
Weather by CustomWeather, © 2015

See weather overviewHow to use our weather pages